Regional Weather Roundup
Issued by NWS Austin/San Antonio, TX

Home | Current Version | Previous Version | Text Only | Print | Product List | Glossary On
Versions: 1 2 3 4 5 6 7 8 9 10 11 12 13 14 15 16 17 18 19 20 21 22 23 24 25 26 27 28 29 30 31 32 33 34 35 36 37 38 39 40 41 42 43 44 45 46 47 48 49 50
811
ASUS44 KEWX 220702
RWREWX
SOUTH TEXAS REGIONAL WEATHER ROUNDUP
NATIONAL WEATHER SERVICE AUSTIN/SAN ANTONIO TX
200 AM CDT TUE OCT 22 2019

NOTE: "FAIR" INDICATED FEW OR NO CLOUDS BELOW 12,000 FEET WITH NO
SIGNIFICANT WEATHER AND/OR OBSTRUCTIONS TO VISIBILITY.

* - THESE STATIONS ARE NOT NWS OR FAA STATIONS...AND ARE NOT SUBJECT
    TO NWS AND FAA QUALITY CONTROL.

TXZ171-172-183>190-220800-
TEXAS HILL COUNTRY AND EDWARDS PLATEAU

CITY           SKY/WX    TMP DP  RH WIND       PRES   REMARKS
JUNCTION       CLEAR     47  45  93 CALM      30.14R
*LLANO         CLEAR     52  43  71 CALM      30.15R
BURNET         CLEAR     56  37  49 NE3       30.13R
*HORSESHOE BAY CLEAR     50  45  81 CALM      30.12R
*KERRVILLE     CLEAR     47  43  87 CALM      30.12R
*FREDERICKSBRG CLEAR     48  44  85 CALM      30.13R
*ROCKSPRINGS   PTCLDY    55  32  41 SE8       30.16R
*BOERNE        CLEAR     48  43  81 CALM      30.12R
*CASTROVILLE   CLEAR     58  40  50 NE3       30.10R
HONDO          CLEAR     51  42  71 NE8       30.08R
*UVALDE        CLEAR     55  41  59 NE6       30.09R
DEL RIO        CLEAR     63  39  41 E6        30.06R
LAUGHLIN AFB   NOT AVBL
SPOFFORD       CLEAR     56  42  57 E5        30.02R
*EAGLE PASS    PTCLDY    61  43  51 NE7       30.06R
CARRIZO SPRGS  CLEAR     59  45  58 E5        30.06R
*FAITH RANCH   CLEAR     66  41  39 E8        30.05R
$$

TXZ173-191>194-202-209-217>225-228-220800-
CENTRAL AND SOUTH CENTRAL TEXAS

CITY           SKY/WX    TMP DP  RH WIND       PRES   REMARKS
GEORGETOWN     CLEAR     53  41  63 CALM      30.13R
AUSTIN/BERGSTM CLEAR     49  43  80 N3        30.10R
AUSTIN/MABRY   CLEAR     60  32  34 N3        30.11R
*AUSTIN/EXEC   CLEAR     55  41  58 N3        30.11R
*LAGO VISTA    CLEAR     55  39  53 E6        30.12R
SAN MARCOS     CLEAR     55  42  61 NE9       30.09S
NEW BRAUNFELS  CLEAR     59  41  51 NE9       30.07S
RANDOLPH AFB   CLEAR     60  40  48 NE8       30.08R
SEGUIN         CLEAR     55  42  63 NE7       30.11S
KELLY FIELD    CLEAR     58  42  55 NE7       30.07R
SAN ANTONIO    CLEAR     60  38  43 NE5       30.09R
STINSON FIELD  CLEAR     60  41  49 NE3       30.07R
PLEASANTON     CLEAR     58  40  51 CALM      30.07R
*LA GRANGE     CLEAR     58  46  65 CALM      30.06S
*GIDDINGS      CLEAR     60  46  61 NE3       30.09S
*GONZALES      CLEAR     59  44  56 NE6       30.07S
$$

TXZ163>164-176>182-195>201-210>213-226-227-235-220800-
SOUTHEAST TEXAS

CITY           SKY/WX    TMP DP  RH WIND       PRES   REMARKS
COLLEGE STN    CLEAR     62  42  47 NE7       30.09R
*BRYAN         CLEAR     55  47  75 CALM      30.11S
*CALDWELL      CLEAR     58  42  55 N5        30.10R
*CROCKETT      CLEAR     46  45  93 CALM      30.12R
*BRENHAM       CLEAR     57  46  65 CALM      30.09S
HUNTSVILLE     CLEAR     52  47  83 CALM      30.09R
CONROE         CLEAR     54  47  77 N6        30.08R
HOUSTON BUSH   CLEAR     59  47  64 N3        30.07R
HOUSTON HOBBY  FAIR      63  48  58 N9        30.05S
*HOUSTON SW AP FAIR      59  48  66 N5        30.06S
PEARLAND       FAIR      63  52  67 N7        30.06S
HOUSTON HOOKS  FAIR      57  46  66 CALM      30.07R
ELLINGTON FLD  CLEAR     63  48  59 N6        30.05
SUGAR LAND     FAIR      57  49  74 N7        30.06R
*HOUSTON EXEC  FAIR      54  48  82 N7        30.08S
*CLEVELAND MUN FAIR      54  54 100 CALM      30.08R
*WHARTON       CLEAR     56  46  71 N5        30.07S
*COLUMBUS      FAIR      56  39  53 N6        30.08S
*EAGLE LAKE    CLEAR     59  49  69 CALM      30.06
$$

TXZ214>216-236>238-220800-
THE UPPER TEXAS COAST

CITY           SKY/WX    TMP DP  RH WIND       PRES   REMARKS
*ORANGE        FAIR      59  58  97 N5        30.06S
PORT ARTHUR    FAIR      62  53  72 N12       30.04R
GALVESTON      FAIR      71  53  52 N20G25    30.04R
ANGLETON       FAIR      58  53  84 N5        30.05R
*BAY CITY      CLEAR     60  56  88 CALM      30.05S
PALACIOS       CLEAR     58  52  80 N7        30.04S
$$

TXZ229>234-239>247-220800-
TEXAS COASTAL BEND AND RIO GRANDE PLAINS

CITY           SKY/WX    TMP DP  RH WIND       PRES   REMARKS
VICTORIA       CLEAR     56  50  80 NE9       30.06R
*BEEVILLE      CLEAR     65  44  47 NE9       30.04R
ROCKPORT       CLEAR     70  51  51 NE14      30.03R
*PORT ARANSAS  CLEAR     71  56  60 NE15      30.03S
*PORT LAVACA   CLEAR     66  53  63 NE10      30.05R
*INGLESIDE     CLEAR     66  55  67 NE10      30.02S
CORPUS CHRISTI CLEAR     69  53  56 NE14      30.01S
CORPUS NAS     CLEAR     74  55  51 NE24      30.01R
*ROBSTOWN      CLEAR     67  45  43 NE12      30.02R
ALICE          CLEAR     61  44  53 NE7       30.03R
KINGSVILLE NAS CLEAR     65  48  54 N8        30.02R
COTULLA        CLEAR     65  38  36 E7        30.06R
LAREDO         CLEAR     67  42  40 E7        30.03R
$$

TXZ248>255-220800-
DEEP SOUTH TEXAS

CITY           SKY/WX    TMP DP  RH WIND       PRES   REMARKS
BROWNSVILLE    FAIR      77  68  73 NE10      29.95R
PORT ISABEL    FAIR      77  68  73 NE13      29.96R
HARLINGEN      CLEAR     68  66  93 N7        29.97R
*HEBBRONVILLE  CLEAR     64  42  44 CALM      30.05R
MCALLEN        CLEAR     73  62  68 N3        30.00R
*WESLACO       MOCLDY    68  63  84 N5        29.98R
FALFURRIAS     CLEAR     64  48  57 N5        30.01R
EDINBURG       FAIR      64  61  90 N5        30.00R
*ZAPATA        NOT AVBL
$$

TXZ213>215-236>238-242>244-246-247-251-254-255-220800-
CMAN STATIONS

STATION/POSITION TIME  TEMP    WIND        PRES    WAVE
                       AIR SEA DIR/SP/G            HT/PER
                 (UTC) (F)     (DEG/KT/KT) (MB)    (FT/S)
SABINE PASS      0618   68 76   10/ 14/ 17 1018.7
SEA RIM ST PARK  0600   65     360/  9/ 10 1017.0
NORTH JETTY/GLS  0618   70 76   30/ 13/ 17 1016.0
EAGLE POINT      0618   69 75   20/ 11/ 14 1016.7
MORGANS POINT    0618   65 77  350/  8/ 10 1017.4
PORT O`CONNOR    0618   72 76   40/ 18/ 20 1016.5
PORT ARANSAS     0600   75 78   20/ 21/ 25 1015.8
MALAQUITE BEACH  0618   77 80   20/ 23/ 25 1015.5
BAFFIN BAY       0618   75 79   10/ 13/ 15 1015.7
PORT ISABEL      0618   78 81   20/ 14/ 18 1014.5
$$




USA.gov is the U.S. government's official web portal to all federal, state and local government web resources and services.